TimeEDT,TemperatureF,Dew PointF,Humidity,Sea Level PressureIn,VisibilityMPH,Wind Direction,Wind SpeedMPH,Gust SpeedMPH,PrecipitationIn,Events,Conditions,WindDirDegrees,DateUTC
12:54 AM,63.0,51.1,65,30.07,10.0,SSE,8.1,-,N/A,,Clear,160,2012-10-24 04:54:00
1:54 AM,62.6,48.2,59,30.09,10.0,South,5.8,-,N/A,,Clear,170,2012-10-24 05:54:00
2:54 AM,60.1,48.9,67,30.08,10.0,South,6.9,-,N/A,,Clear,180,2012-10-24 06:54:00
3:54 AM,60.1,48.9,67,30.09,10.0,South,6.9,-,N/A,,Mostly Cloudy,180,2012-10-24 07:54:00
4:54 AM,60.1,50.0,69,30.09,10.0,South,5.8,-,N/A,,Overcast,180,2012-10-24 08:54:00
5:54 AM,59.0,51.1,75,30.11,10.0,South,5.8,-,N/A,,Overcast,170,2012-10-24 09:54:00
6:54 AM,57.9,51.1,78,30.13,10.0,South,8.1,-,N/A,,Mostly Cloudy,170,2012-10-24 10:54:00
7:54 AM,57.0,50.0,77,30.15,10.0,SSE,6.9,-,N/A,,Clear,150,2012-10-24 11:54:00
8:54 AM,57.9,51.1,78,30.16,10.0,SSE,8.1,-,N/A,,Clear,150,2012-10-24 12:54:00
9:54 AM,63.0,53.1,70,30.17,10.0,SSE,5.8,-,N/A,,Clear,160,2012-10-24 13:54:00
10:54 AM,68.0,54.0,61,30.16,10.0,South,9.2,-,N/A,,Clear,180,2012-10-24 14:54:00
11:54 AM,71.1,54.0,55,30.15,10.0,SSW,11.5,-,N/A,,Clear,200,2012-10-24 15:54:00
12:54 PM,73.0,55.0,53,30.13,10.0,SSW,6.9,-,N/A,,Clear,210,2012-10-24 16:54:00
1:54 PM,73.9,54.0,50,30.10,10.0,SSW,8.1,-,N/A,,Clear,210,2012-10-24 17:54:00
2:54 PM,75.0,54.0,48,30.08,10.0,SSE,6.9,-,N/A,,Clear,160,2012-10-24 18:54:00
3:54 PM,75.9,51.1,42,30.07,10.0,South,10.4,-,N/A,,Clear,190,2012-10-24 19:54:00
4:54 PM,75.9,52.0,43,30.06,10.0,SSE,8.1,-,N/A,,Clear,160,2012-10-24 20:54:00
5:54 PM,73.9,50.0,43,30.05,10.0,South,6.9,-,N/A,,Clear,180,2012-10-24 21:54:00
6:54 PM,73.0,48.0,41,30.06,10.0,Calm,Calm,-,N/A,,Clear,0,2012-10-24 22:54:00
7:54 PM,68.0,48.9,50,30.06,10.0,SSE,4.6,-,N/A,,Clear,160,2012-10-24 23:54:00
8:54 PM,62.1,50.0,65,30.07,10.0,SSE,4.6,-,N/A,,Clear,160,2012-10-25 00:54:00
9:54 PM,63.0,48.0,58,30.07,10.0,SSE,5.8,-,N/A,,Clear,150,2012-10-25 01:54:00
10:54 PM,55.0,48.0,77,30.07,10.0,SSE,5.8,-,N/A,,Clear,160,2012-10-25 02:54:00
11:54 PM,55.0,48.0,77,30.07,10.0,SSE,8.1,-,N/A,,Clear,160,2012-10-25 03:54:00